Big Bear City, CA

7:58 AM PDT on April 25, 2017 (GMT -0700)
Big Bear City

Weather History for KL35 - July, 2013

Change the Weather History Date:

Saturday, July 13, 2013

  Actual Average (KBUO) Record (KBUO)
Temperature  
Mean Temperature 60 °F -  
Max Temperature 75 °F 90 °F 98 °F (2001)
Min Temperature 44 °F 59 °F 53 °F (2000)
Degree Days  
Heating Degree Days 6    
Growing Degree Days 10 (Base 50)    
Moisture  
Dew Point 39 °F    
Average Humidity 46    
Maximum Humidity 76    
Minimum Humidity 25    
Precipitation  
Precipitation 0.01 in - - ()
Sea Level Pressure  
Sea Level Pressure 30.28 in    
Wind  
Wind Speed 2 mph (NE)    
Max Wind Speed 12 mph    
Max Gust Speed 16 mph    
Visibility 10 miles    
Events Rain    
Averages and records for this station are not official NWS values.
T = Trace of Precipitation, MM = Missing Value Source: NWS Daily Summary

Daily Weather History Graph

Daily Weather History Graph

Search for Another Location

Airport or City:

Trip Planner

Search our weather history database for the weather conditions in past years. The results will help you decide how hot, cold, wet, or windy it might be!

Date:

Astronomy

Jul. 13, 2013 Rise Set
Actual Time 5:45 AM PDT 8:00 PM PDT
Civil Twilight 5:16 AM PDT 8:29 PM PDT
Nautical Twilight 4:41 AM PDT 9:04 PM PDT
Astronomical Twilight 4:03 AM PDT 9:42 PM PDT
Moon 10:50 AM PDT (7/13) 11:01 PM PDT (7/13)
Length of Visible Light 15h 12m
Length of Day
14h 14m
Waxing Crescent, 26% of the Moon is Illuminated
Jul 13
Waxing Crescent
Jul 15
First Quarter
Jul 22
Full
Jul 29
Last Quarter
Aug 6
New

Hourly Weather History & Observations

Time (PDT) Temp. Dew Point Humidity Pressure Visibility Wind Dir Wind Speed Gust Speed Precip Events Conditions
12:15 AM 50.0 °F 35.6 °F 58% 30.27 in 10.0 mi Calm Calm - N/A   Clear
12:35 AM 50.0 °F 35.6 °F 58% 30.26 in 10.0 mi Calm Calm - N/A   Clear
12:55 AM 50.0 °F 33.8 °F 54% 30.27 in 10.0 mi Calm Calm - N/A   Clear
1:15 AM 50.0 °F 33.8 °F 54% 30.26 in 10.0 mi Calm Calm - N/A   Clear
1:35 AM 48.2 °F 33.8 °F 58% 30.26 in 10.0 mi Calm Calm - N/A   Clear
1:55 AM 46.4 °F 33.8 °F 62% 30.26 in 10.0 mi Calm Calm - N/A   Clear
2:15 AM 46.4 °F 33.8 °F 62% 30.26 in 10.0 mi Calm Calm - N/A   Clear
2:35 AM 46.4 °F 35.6 °F 66% 30.25 in 10.0 mi Calm Calm - N/A   Clear
2:55 AM 46.4 °F 35.6 °F 66% 30.25 in 10.0 mi Calm Calm - N/A   Clear
3:15 AM 46.4 °F 35.6 °F 66% 30.25 in 10.0 mi Calm Calm - N/A   Clear
3:35 AM 46.4 °F 35.6 °F 66% 30.25 in 10.0 mi Calm Calm - N/A   Clear
3:55 AM 46.4 °F 35.6 °F 66% 30.25 in 10.0 mi Calm Calm - N/A   Clear
4:15 AM 46.4 °F 35.6 °F 66% 30.25 in 10.0 mi Calm Calm - N/A   Clear
4:35 AM 46.4 °F 35.6 °F 66% 30.25 in 10.0 mi Calm Calm - N/A   Clear
4:55 AM 46.4 °F 35.6 °F 66% 30.26 in 10.0 mi Calm Calm - N/A   Clear
5:15 AM 46.4 °F 35.6 °F 66% 30.27 in 10.0 mi Calm Calm - N/A   Clear
5:35 AM 44.6 °F 35.6 °F 71% 30.27 in 10.0 mi Calm Calm - N/A   Clear
5:55 AM 46.4 °F 37.4 °F 71% 30.27 in 10.0 mi Calm Calm - N/A   Clear
6:15 AM 46.4 °F 37.4 °F 71% 30.27 in 10.0 mi Calm Calm - N/A   Clear
6:35 AM 46.4 °F 39.2 °F 76% 30.28 in 10.0 mi Calm Calm - N/A   Clear
6:55 AM 50.0 °F 41.0 °F 71% 30.28 in 10.0 mi Calm Calm - N/A   Clear
7:15 AM 51.8 °F 42.8 °F 71% 30.28 in 10.0 mi Calm Calm - N/A   Clear
7:35 AM 55.4 °F 44.6 °F 67% 30.28 in 10.0 mi Calm Calm - N/A   Clear
7:55 AM 59.0 °F 42.8 °F 55% 30.29 in 10.0 mi Calm Calm - N/A   Clear
8:15 AM 62.6 °F 41.0 °F 45% 30.29 in 10.0 mi Calm Calm - N/A   Clear
8:35 AM 68.0 °F 41.0 °F 37% 30.30 in 10.0 mi Calm Calm - N/A   Clear
8:55 AM 69.8 °F 37.4 °F 31% 30.30 in 10.0 mi ENE 3.5 mph - N/A   Clear
9:15 AM 69.8 °F 35.6 °F 28% 30.29 in 10.0 mi NE 11.5 mph 16.1 mph N/A   Clear
9:35 AM 69.8 °F 33.8 °F 27% 30.30 in 10.0 mi NE 9.2 mph - N/A   Mostly Cloudy
9:55 AM 71.6 °F 35.6 °F 27% 30.29 in 10.0 mi East 8.1 mph - N/A   Mostly Cloudy
10:15 AM 69.8 °F 39.2 °F 33% 30.30 in 10.0 mi ENE 9.2 mph - N/A   Overcast
10:35 AM 68.0 °F 37.4 °F 33% 30.31 in 10.0 mi North 8.1 mph - N/A   Overcast
10:55 AM 64.4 °F 42.8 °F 45% 30.31 in 10.0 mi NNW 6.9 mph - 0.01 in Rain Light Rain
11:15 AM 62.6 °F 42.8 °F 48% 30.31 in 10.0 mi NNW 4.6 mph - N/A   Light Drizzle
11:35 AM 66.2 °F 41.0 °F 40% 30.31 in 10.0 mi North 3.5 mph - N/A   Scattered Clouds
11:55 AM 69.8 °F 37.4 °F 31% 30.31 in 10.0 mi Calm Calm - N/A   Clear
12:15 PM 69.8 °F 35.6 °F 28% 30.31 in 10.0 mi Calm Calm - N/A   Clear
12:35 PM 71.6 °F 37.4 °F 29% 30.31 in 10.0 mi NE 5.8 mph - N/A   Clear
12:55 PM 71.6 °F 37.4 °F 29% 30.30 in 10.0 mi ENE 3.5 mph - N/A   Scattered Clouds
1:15 PM 71.6 °F 39.2 °F 31% 30.30 in 10.0 mi ESE 5.8 mph - N/A   Mostly Cloudy
1:35 PM 71.6 °F 39.2 °F 31% 30.30 in 10.0 mi Calm Calm - N/A   Mostly Cloudy
1:55 PM 71.6 °F 39.2 °F 31% 30.30 in 10.0 mi ENE 4.6 mph - N/A   Overcast
2:15 PM 71.6 °F 39.2 °F 31% 30.29 in 10.0 mi ENE 4.6 mph - N/A   Overcast
2:35 PM 71.6 °F 39.2 °F 31% 30.28 in 10.0 mi Calm Calm - N/A   Mostly Cloudy
2:55 PM 73.4 °F 37.4 °F 27% 30.28 in 10.0 mi Calm Calm - N/A   Mostly Cloudy
3:15 PM 73.4 °F 39.2 °F 29% 30.28 in 10.0 mi East 6.9 mph - N/A   Mostly Cloudy
3:35 PM 73.4 °F 39.2 °F 29% 30.27 in 10.0 mi NE 6.9 mph - N/A   Mostly Cloudy
3:55 PM 73.4 °F 39.2 °F 29% 30.26 in 10.0 mi NE 5.8 mph - N/A   Scattered Clouds
4:15 PM 75.2 °F 41.0 °F 29% 30.25 in 10.0 mi Calm Calm - N/A   Clear
4:35 PM 73.4 °F 37.4 °F 27% 30.25 in 10.0 mi NNE 6.9 mph - N/A   Mostly Cloudy
4:55 PM 73.4 °F 37.4 °F 27% 30.25 in 10.0 mi NE 5.8 mph - N/A   Overcast
5:15 PM 73.4 °F 39.2 °F 29% 30.24 in 10.0 mi NE 4.6 mph - N/A   Scattered Clouds
5:35 PM 73.4 °F 39.2 °F 29% 30.24 in 10.0 mi NE 5.8 mph - N/A   Clear
5:55 PM 73.4 °F 39.2 °F 29% 30.23 in 10.0 mi East 3.5 mph - N/A   Clear
6:15 PM 75.2 °F 37.4 °F 25% 30.23 in 10.0 mi Calm Calm - N/A   Scattered Clouds
6:35 PM 75.2 °F 39.2 °F 27% 30.24 in 10.0 mi NE 9.2 mph - N/A   Overcast
6:55 PM 73.4 °F 41.0 °F 31% 30.25 in 10.0 mi Calm Calm - N/A   Overcast
7:15 PM 71.6 °F 46.4 °F 41% 30.25 in 10.0 mi West 10.4 mph - N/A   Overcast
7:35 PM 71.6 °F 44.6 °F 38% 30.25 in 10.0 mi WSW 5.8 mph - N/A   Scattered Clouds
7:55 PM 69.8 °F 42.8 °F 38% 30.26 in 10.0 mi WSW 3.5 mph - N/A   Clear
8:15 PM 68.0 °F 44.6 °F 43% 30.26 in 10.0 mi WSW 3.5 mph - N/A   Clear
8:35 PM 66.2 °F 44.6 °F 46% 30.27 in 10.0 mi Calm Calm - N/A   Scattered Clouds
8:55 PM 64.4 °F 42.8 °F 45% 30.27 in 10.0 mi Calm Calm - N/A   Scattered Clouds
9:15 PM 62.6 °F 42.8 °F 48% 30.28 in 10.0 mi Calm Calm - N/A   Scattered Clouds
9:35 PM 62.6 °F 41.0 °F 45% 30.29 in 10.0 mi Calm Calm - N/A   Mostly Cloudy
9:55 PM 60.8 °F 42.8 °F 52% 30.30 in 10.0 mi Calm Calm - N/A   Scattered Clouds
10:15 PM 60.8 °F 42.8 °F 52% 30.30 in 10.0 mi Calm Calm - N/A   Clear
10:35 PM 59.0 °F 41.0 °F 51% 30.30 in 10.0 mi Calm Calm - N/A   Clear
10:55 PM 57.2 °F 41.0 °F 55% 30.30 in 10.0 mi Calm Calm - N/A   Clear
11:15 PM 55.4 °F 41.0 °F 58% 30.30 in 10.0 mi Calm Calm - N/A   Clear
11:35 PM 53.6 °F 39.2 °F 58% 30.30 in 10.0 mi Calm Calm - N/A   Clear
11:55 PM 53.6 °F 37.4 °F 54% 30.30 in 10.0 mi Calm Calm - N/A   Clear